Time,TemperatureF,DewpointF,PressureIn,WindDirection,WindDirectionDegrees,WindSpeedMPH,WindSpeedGustMPH,Humidity,HourlyPrecipIn,Conditions,Clouds,dailyrainin,SoftwareType,DateUTC
2013-10-30 00:53:00,33.0,-99.9,-100.00,ENE,60,0.0,1.0,-999,0.00,,,-99.99,,2013-10-30 06:53:00,
2013-10-30 01:22:00,33.0,-99.9,-100.00,South,180,2.0,8.0,-999,0.00,,,-99.99,,2013-10-30 07:22:00,
2013-10-30 01:52:00,32.0,-99.9,-100.00,SSE,157,0.0,1.0,-999,0.00,,,-99.99,,2013-10-30 07:52:00,
2013-10-30 02:22:00,32.0,-99.9,-100.00,East,83,0.0,1.0,-999,0.00,,,-99.99,,2013-10-30 08:22:00,
2013-10-30 02:52:00,32.0,-99.9,-100.00,NE,37,0.0,0.0,-999,0.00,,,-99.99,,2013-10-30 08:52:00,
2013-10-30 03:22:00,32.0,-99.9,-100.00,NW,315,0.0,0.0,-999,0.00,,,-99.99,,2013-10-30 09:22:00,
2013-10-30 03:54:00,32.0,-99.9,-100.00,NNW,337,0.0,0.0,-999,0.00,,,-99.99,,2013-10-30 09:54:00,
2013-10-30 04:23:00,32.0,-99.9,-100.00,ESE,109,0.0,0.0,-999,0.00,,,-99.99,,2013-10-30 10:23:00,
2013-10-30 04:53:00,32.0,-99.9,-100.00,ESE,112,0.0,0.0,-999,0.00,,,-99.99,,2013-10-30 10:53:00,
2013-10-30 05:22:00,32.0,-99.9,-100.00,NNW,337,0.0,0.0,-999,0.00,,,-99.99,,2013-10-30 11:22:00,
2013-10-30 05:52:00,32.0,-99.9,-100.00,NNW,341,0.0,0.0,-999,0.00,,,-99.99,,2013-10-30 11:52:00,
2013-10-30 06:22:00,32.0,-99.9,-100.00,WSW,240,0.0,1.0,-999,0.00,,,-99.99,,2013-10-30 12:22:00,
2013-10-30 06:52:00,32.0,-99.9,-100.00,West,262,0.0,0.0,-999,0.00,,,-99.99,,2013-10-30 12:52:00,
2013-10-30 07:22:00,32.0,-99.9,-100.00,ESE,112,0.0,1.0,-999,0.00,,,-99.99,,2013-10-30 13:22:00,
2013-10-30 07:52:00,32.0,-99.9,-100.00,NNW,337,0.0,0.0,-999,0.00,,,-99.99,,2013-10-30 13:52:00,
2013-10-30 08:22:00,32.0,-99.9,-100.00,NNW,337,0.0,0.0,-999,0.00,,,-99.99,,2013-10-30 14:22:00,
2013-10-30 08:52:00,32.0,-99.9,-100.00,SSE,163,0.0,0.0,-999,0.00,,,-99.99,,2013-10-30 14:52:00,
2013-10-30 09:22:00,34.0,-99.9,-100.00,West,262,0.0,0.0,-999,0.00,,,-99.99,,2013-10-30 15:22:00,
2013-10-30 09:54:00,35.0,-99.9,-100.00,NW,321,0.0,1.0,-999,0.00,,,-99.99,,2013-10-30 15:54:00,
2013-10-30 10:23:00,37.0,-99.9,-100.00,WNW,288,0.0,2.0,-999,0.00,,,-99.99,,2013-10-30 16:23:00,
2013-10-30 10:54:00,38.0,-99.9,-100.00,NW,317,0.0,3.0,-999,0.00,,,-99.99,,2013-10-30 16:54:00,
2013-10-30 11:23:00,39.0,-99.9,-100.00,NW,317,0.0,3.0,-999,0.00,,,-99.99,,2013-10-30 17:23:00,
2013-10-30 11:52:00,38.0,-99.9,-100.00,NW,321,1.0,2.0,-999,0.00,,,-99.99,,2013-10-30 17:52:00,
2013-10-30 12:22:00,40.0,-99.9,-100.00,NW,316,1.0,3.0,-999,0.00,,,-99.99,,2013-10-30 18:22:00,
2013-10-30 12:52:00,40.0,-99.9,-100.00,West,279,3.0,4.0,-999,0.00,,,-99.99,,2013-10-30 18:52:00,
2013-10-30 13:22:00,39.0,-99.9,-100.00,WNW,299,1.0,7.0,-999,0.00,,,-99.99,,2013-10-30 19:22:00,
2013-10-30 13:52:00,39.0,-99.9,-100.00,NW,315,1.0,4.0,-999,0.00,,,-99.99,,2013-10-30 19:52:00,
2013-10-30 14:22:00,40.0,-99.9,-100.00,West,275,3.0,6.0,-999,0.00,,,-99.99,,2013-10-30 20:22:00,
2013-10-30 14:52:00,41.0,-99.9,-100.00,West,272,3.0,5.0,-999,0.00,,,-99.99,,2013-10-30 20:52:00,
2013-10-30 15:22:00,39.0,-99.9,-100.00,NW,305,2.0,8.0,-999,0.00,,,-99.99,,2013-10-30 21:22:00,
2013-10-30 15:53:00,33.0,-99.9,-100.00,WNW,296,0.0,4.0,-999,0.00,,,-99.99,,2013-10-30 21:53:00,
2013-10-30 16:23:00,34.0,-99.9,-100.00,SE,125,0.0,2.0,-999,0.00,,,-99.99,,2013-10-30 22:23:00,
2013-10-30 16:54:00,36.0,-99.9,-100.00,NW,320,0.0,2.0,-999,0.00,,,-99.99,,2013-10-30 22:54:00,
2013-10-30 17:23:00,35.0,-99.9,-100.00,NW,316,0.0,1.0,-999,0.00,,,-99.99,,2013-10-30 23:23:00,
2013-10-30 17:53:00,36.0,-99.9,-100.00,SSE,150,0.0,0.0,-999,0.00,,,-99.99,,2013-10-30 23:53:00,
2013-10-30 18:22:00,34.0,-99.9,-100.00,North,0,0.0,0.0,-999,0.00,,,-99.99,,2013-10-31 00:22:00,
2013-10-30 18:52:00,33.0,-99.9,-100.00,NNW,337,0.0,0.0,-999,0.00,,,-99.99,,2013-10-31 00:52:00,
2013-10-30 19:22:00,33.0,-99.9,-100.00,ESE,121,0.0,1.0,-999,0.00,,,-99.99,,2013-10-31 01:22:00,
2013-10-30 19:53:00,33.0,-99.9,-100.00,SE,143,0.0,2.0,-999,0.00,,,-99.99,,2013-10-31 01:53:00,
2013-10-30 20:22:00,32.0,-99.9,-100.00,WSW,244,0.0,0.0,-999,0.00,,,-99.99,,2013-10-31 02:22:00,
2013-10-30 21:22:00,32.0,-99.9,-100.00,South,180,0.0,0.0,-999,0.00,,,-99.99,,2013-10-31 03:22:00,
2013-10-30 21:55:00,32.0,-99.9,-100.00,South,180,0.0,0.0,-999,0.00,,,-99.99,,2013-10-31 03:55:00,
2013-10-30 22:24:00,32.0,-99.9,-100.00,South,180,0.0,0.0,-999,0.00,,,-99.99,,2013-10-31 04:24:00,
2013-10-30 22:54:00,32.0,-99.9,-100.00,SSE,164,0.0,0.0,-999,0.00,,,-99.99,,2013-10-31 04:54:00,
2013-10-30 23:23:00,32.0,-99.9,-100.00,SSE,157,0.0,0.0,-999,0.00,,,-99.99,,2013-10-31 05:23:00,
2013-10-30 23:52:00,32.0,-99.9,-100.00,SSE,157,0.0,0.0,-999,0.00,,,-99.99,,2013-10-31 05:52:00,